Tracking 19909 objects as of 21-Oct-2019
HD Live streaming from Space Station
objects crossing your sky now

IRIDIUM 33 DEB

Track IRIDIUM 33 DEB now!
10-day predictions


NORAD ID: 35052
Int'l Code: 1997-051NY
Perigee: 772.8 km
Apogee: 787.6 km
Inclination: 86.3 °
Period: 100.3 minutes
Semi major axis: 7151 km
RCS: 0.0011 m2 (small)
Launch date: September 14, 1997
Source: United States (US)
Launch site: TYURATAM MISSILE AND SPACE COMPLEX (TTMTR)

Note: This is SATELLITE DEBRIS
aabbcc
Your satellite tracking list
Your tracking list is empty




NASA's NSSDC Master Catalog

Two Line Element Set (TLE):
1 35052U 97051NY  19294.17563631  .00000134  00000-0  39671-4 0  9992
2 35052  86.3300 258.9836 0010333 216.7937 143.2552 14.35597018552943
Source of the keplerian elements: AFSPC